Regional Weather Roundup
Issued by NWS Columbia, SC

Home | Current Version | Previous Version | Text Only | Print | Product List | Glossary On
Versions: 1 2 3 4 5 6 7 8 9 10 11 12 13 14 15 16 17 18 19 20 21 22 23 24 25 26 27 28 29 30 31 32 33 34 35 36 37 38 39 40 41 42 43 44 45 46 47 48 49 50
000
ASUS42 KCAE 241010
RWRCAE
REGIONAL WEATHER ROUNDUP
NATIONAL WEATHER SERVICE COLUMBIA SC
600 AM EDT SUN MAY 24 2015

NOTE: "FAIR" INDICATES FEW OR NO CLOUDS BELOW 12,000 FEET WITH NO
SIGNIFICANT WEATHER AND/OR OBSTRUCTIONS TO VISIBILITY.

NOT ALL STATIONS ARE QUALITY CONTROLLED BY THE NATIONAL
WEATHER SERVICE. USE DATA WITH CAUTION...ESPECIALLY
DEWPOINT OBSERVATIONS.

SCZ001>056-GAZ040-063>065-077-241100-
...UPSTATE SOUTH CAROLINA...

CITY           SKY/WX    TMP DP  RH WIND       PRES   REMARKS
ANDERSON       PTCLDY    58  54  86 N5        30.38R
LIBERTY        MOSUNNY   50  49  97 CALM      30.39R
SPARTANBURG    PTCLDY    55  52  88 N3        30.39R
CLEMSON        PTCLDY    59  51  75 NE3       30.40R
GREENVILLE     PTCLDY    60  51  72 NW3       30.40R
GREENWOOD      PTCLDY    52  51  97 CALM      30.39R
GREER          PTCLDY    57  51  80 CALM      30.38R
ROCK HILL      CLEAR     52  51  97 CALM      30.39R
CHESTER        SUNNY     57  52  82 CALM      30.39R
LAURENS        SUNNY     52  52 100 CALM      30.38R


...CENTRAL SOUTH CAROLINA...

CITY           SKY/WX    TMP DP  RH WIND       PRES   REMARKS
COLUMBIA APT   PTCLDY    56  52  86 CALM      30.36R
COLUMBIA OWENS CLEAR     60  56  86 CALM      30.37R
DARLINGTON     CLEAR     55  48  76 CALM      30.39S
FLORENCE       CLEAR     58  56  93 CALM      30.37S
MCENTIRE ANGB  CLEAR     58  56  95 NE2       30.36R
ORANGEBURG     CLEAR     61  58  90 NE3       30.36R
SUMTER SHAW    CLEAR     57  54  91 NE3       30.35R
NEWBERRY       SUNNY     54  54 100 CALM      30.40R
AIKEN          FAIR      55  54  94 NE3       30.39R
BARNWELL       FAIR      63  59  88 NE3       30.35S
MANNING        FAIR      55  50  82 CALM      30.36S
CAMDEN         FAIR      55  52  88 CALM      30.38S
LANCASTER      SUNNY     54  54 100 CALM      30.38R
WINNSBORO      SUNNY     61  57  88 E3        30.38R


...EASTERN AND COASTAL SOUTH CAROLINA...

CITY           SKY/WX    TMP DP  RH WIND       PRES   REMARKS
MYRTLE BEACH   PTCLDY    72  55  56 E7        30.38R
N MYRTLE BCH   CLEAR     66  56  70 N6        30.36R
CONWAY         FAIR      55  55 100 CALM      30.37R
MARION         FAIR      55  55 100 CALM      30.38R
HARTSVILLE     FAIR      57  55  94 CALM      30.37S
FLORENCE       CLEAR     58  56  93 CALM      30.37S
DARLINGTON     CLEAR     55  48  76 CALM      30.39S
CHARLESTON APT PTCLDY    59  57  93 N3        30.34R
MOUNT PLEASANT LGT RAIN  70  59  68 E5        30.34R
WALTERBORO     SUNNY     59  55  88 CALM      30.34S
BEAUFORT       CLEAR     70  61  73 E3        30.32S


...EASTERN GEORGIA...

CITY           SKY/WX    TMP DP  RH WIND       PRES   REMARKS
AUGUSTA BUSH F PTCLDY    57  55  93 CALM      30.34S
AUGUSTA DANIEL CLEAR     66  57  72 E6        30.35S
THOMSON        MOCLDY    60  60 100 CALM      30.39R
WASHINGTON     FAIR      61  61 100 E3        30.36R
CLAXTON        PTSUNNY   63  61  94 CALM      30.31S
SYLVANIA       SUNNY     64  63  95 CALM      30.33S
STATESBORO     CLEAR     60  60 100 CALM      30.32S
SAVANNAH       PTCLDY    64  61  90 N5        30.32R


...SOUTHERN NORTH CAROLINA...

CITY           SKY/WX    TMP DP  RH WIND       PRES   REMARKS
CHARLOTTE      CLEAR     59  50  72 CALM      30.39R
MONROE         CLEAR     53  50  89 CALM      30.38R
WADESBORO      SUNNY     52  50  92 CALM      30.39R
ROCKINGHAM     SUNNY     54  52  93 CALM      30.38S
RUTHERFORDTON  CLEAR     51  48  90 CALM      30.41R
ASHEVILLE      PTCLDY    51  45  79 SE3       30.42R

$$


USA.gov is the U.S. government's official web portal to all federal, state and local government web resources and services.